Simultaneous Nadir Overpasses (SNOs) Predictions

Prediction of SNOs between LANDSAT-8 and METOP-B Satellite Orbit:

Table of predicted SNOs for the next 14.0 days since TLE Epoch: 9/14/2024
Index Date (LANDSAT-8) Time (LANDSAT-8) Lat,Lon (LANDSAT-8) SZA (LANDSAT-8 ) Date (METOP-B) Time (METOP-B) Lat,Lon (METOP-B) SZA (METOP-B ) Distance(km) Time Diff (sec)
1 09/16/2024 09:59:26 81.40, 74.97 81.66 09/16/2024 09:58:35 81.39, 74.82 81.62 2.58 51
2 09/16/2024 10:48:53 -81.39,-117.46 98.34 09/16/2024 10:49:15 -81.39,-117.58 98.34 2.09 22
3 09/19/2024 05:33:40 81.40, 141.46 82.78 09/19/2024 05:32:53 81.39, 141.57 82.77 1.86 47
4 09/19/2024 06:23:07 -81.40, -50.94 97.22 09/19/2024 06:23:33 -81.40, -50.81 97.19 2.23 26
5 09/22/2024 01:07:52 81.40,-152.08 83.90 09/22/2024 01:07:11 81.40,-151.96 83.89 1.91 41
6 09/22/2024 01:57:19 -81.40, 15.53 96.10 09/22/2024 01:57:51 -81.40, 15.68 96.07 2.40 32
7 09/24/2024 20:42:01 81.40, -85.65 85.01 09/24/2024 20:41:28 81.39, -85.79 84.98 2.33 33
8 09/24/2024 21:31:28 -81.40, 81.97 94.98 09/24/2024 21:32:08 -81.40, 81.88 94.98 1.57 40
9 09/27/2024 16:16:09 81.39, -19.26 86.11 09/27/2024 16:15:44 81.40, -19.11 86.12 2.65 25



Historial Predications of SNOs between LANDSAT-8 and METOP-B
